Tracking 20369 objects as of 17-Feb-2020
HD Live streaming from Space Station
objects crossing your sky now

THORAD DELTA 1 DEB

Track THORAD DELTA 1 DEB now!
10-day predictions


NORAD ID: 42595
Int'l Code: 1974-089FL
Perigee: 1,453.6 km
Apogee: 1,520.5 km
Inclination: 101.6 °
Period: 115.5 minutes
Semi major axis: 7858 km
RCS: Unknown
Launch date: November 15, 1974
Source: United States (US)
Launch site: AIR FORCE WESTERN TEST RANGE (AFWTR)

Note: This is SATELLITE DEBRIS
aabbcc
Your satellite tracking list
Your tracking list is empty




NASA's NSSDC Master Catalog

Two Line Element Set (TLE):
1 42595U 74089FL  20048.29537084 +.00000002 +00000-0 +30770-3 0  9997
2 42595 101.5599 076.1980 0042590 057.7903 302.7284 12.46321443283918
Source of the keplerian elements: AFSPC